Change the Weather History Date:

Monday, June 24, 2013

  Actual Average Record
Temperature  
Mean Temperature 77 °F 74 °F  
Max Temperature 87 °F 86 °F 106 °F (1973)
Min Temperature 67 °F 62 °F 47 °F (1951)
Degree Days  
Heating Degree Days 0 0  
Month to date heating degree days 21 21  
Since 1 June heating degree days 21 21  
Since 1 July heating degree days 6133 6196  
Cooling Degree Days 12 9  
Month to date cooling degree days 188 152  
Year to date cooling degree days 283 217  
Since 1 June cooling degree days 188 152  
Growing Degree Days 26 (Base 50)    
Moisture  
Dew Point 68 °F    
Average Humidity 78    
Maximum Humidity 100    
Minimum Humidity 55    
Precipitation  
Precipitation 0.31 in 0.14 in 3.10 in (1910)
Month to date precipitation 1.54 3.50  
Year to date precipitation 14.91 13.45  
Snow  
Snow 0.00 in 0.00 in - ()
Month to date snowfall 0.0 0.0  
Since 1 June snowfall 0.0 0.0  
Since 1 July snowfall 35.2 29.0  
Snow Depth 0.00 in    
Sea Level Pressure  
Sea Level Pressure 29.78 in    
Wind  
Wind Speed 11 mph (SSE)    
Max Wind Speed 23 mph    
Max Gust Speed 31 mph    
Visibility 9 miles    
Events Rain , Thunderstorm    
T = Trace of Precipitation, MM = Missing Value Source: NWS Daily Summary

Daily Weather History Graph

Daily Weather History Graph

Search for Another Location

Airport or City:

Trip Planner

Search our weather history database for the weather conditions in past years. The results will help you decide how hot, cold, wet, or windy it might be!

Date:

Astronomy

Jun. 24, 2013 Rise Set
Actual Time 6:02 AM CDT 9:09 PM CDT
Civil Twilight 5:28 AM CDT 9:42 PM CDT
Nautical Twilight 4:45 AM CDT 10:25 PM CDT
Astronomical Twilight 3:54 AM CDT 11:16 PM CDT
Moon 10:11 PM CDT (6/24) 7:32 AM CDT (6/24)
Length of Visible Light 16h 14m
Length of Day
15h 07m
Full, 98% of the Moon is Illuminated
Jun 24
Full
Jun 29
Last Quarter
Jul 8
New
Jul 15
First Quarter
Jul 22
Full

Hourly Weather History & Observations

Time (CDT) Temp. Heat Index Dew Point Humidity Pressure Visibility Wind Dir Wind Speed Gust Speed Precip Events Conditions
12:12 AM 71.6 °F - 69.8 °F 94% 29.88 in 10.0 mi East 10.4 mph - N/A   Scattered Clouds
12:53 AM 72.0 °F - 68.0 °F 87% 29.84 in 10.0 mi East 9.2 mph - N/A   Clear
1:53 AM 71.1 °F - 69.1 °F 93% 29.81 in 10.0 mi East 11.5 mph - N/A   Clear
2:53 AM 70.0 °F - 69.1 °F 97% 29.80 in 7.0 mi East 5.8 mph - N/A   Partly Cloudy
3:53 AM 71.1 °F - 69.1 °F 93% 29.81 in 10.0 mi SE 3.5 mph - N/A   Partly Cloudy
4:53 AM 72.0 °F - 69.1 °F 91% 29.84 in 10.0 mi SW 8.1 mph - N/A   Mostly Cloudy
5:21 AM 71.6 °F - 68.0 °F 88% 29.90 in 9.0 mi West 10.4 mph - 0.01 in Rain , Thunderstorm Light Rain
5:43 AM 71.6 °F - 68.0 °F 88% 29.90 in 7.0 mi West 9.2 mph - 0.03 in Rain Light Rain
5:53 AM 70.0 °F - 64.9 °F 84% 29.85 in 10.0 mi NW 5.8 mph - 0.04 in Rain , Thunderstorm Light Rain
6:16 AM 69.8 °F - 64.4 °F 83% 29.86 in 10.0 mi WSW 4.6 mph - 0.00 in Thunderstorm Scattered Clouds
6:51 AM 68.0 °F - 64.4 °F 88% 29.90 in 2.5 mi West 6.9 mph 17.3 mph 0.04 in Rain Heavy Rain
6:53 AM 66.9 °F - 64.9 °F 93% 29.86 in 2.0 mi WSW 5.8 mph - 0.08 in Rain Heavy Rain
7:07 AM 66.2 °F - 64.4 °F 94% 29.84 in 10.0 mi NNW 11.5 mph 18.4 mph 0.10 in Rain Light Rain
7:24 AM 66.2 °F - 64.4 °F 94% 29.86 in 3.0 mi Variable 3.5 mph - 0.13 in Rain , Thunderstorm Heavy Thunderstorms and Rain
7:53 AM 66.9 °F - 64.9 °F 93% 29.78 in 10.0 mi NNE 8.1 mph - 0.19 in   Scattered Clouds
8:53 AM 69.1 °F - 64.9 °F 87% 29.74 in 10.0 mi SSE 15.0 mph - N/A   Clear
9:53 AM 71.1 °F - 68.0 °F 90% 29.75 in 10.0 mi SSE 16.1 mph 28.8 mph N/A   Clear
10:53 AM 73.0 °F - 69.1 °F 87% 29.76 in 10.0 mi South 15.0 mph 23.0 mph N/A   Clear
11:53 AM 77.0 °F - 69.1 °F 76% 29.78 in 10.0 mi SSE 18.4 mph 25.3 mph N/A   Clear
12:53 PM 80.1 °F 82.9 °F 69.1 °F 69% 29.78 in 10.0 mi South 12.7 mph 19.6 mph N/A   Mostly Cloudy
1:08 PM 80.6 °F 83.2 °F 68.0 °F 65% 29.81 in 10.0 mi South 12.7 mph 24.2 mph N/A   Scattered Clouds
1:53 PM 82.0 °F 84.9 °F 68.0 °F 62% 29.75 in 10.0 mi South 16.1 mph 23.0 mph N/A   Scattered Clouds
2:53 PM 84.9 °F 88.8 °F 69.1 °F 59% 29.73 in 10.0 mi South 15.0 mph 21.9 mph N/A   Partly Cloudy
3:53 PM 87.1 °F 91.3 °F 69.1 °F 55% 29.72 in 10.0 mi SSE 11.5 mph - N/A   Clear
4:53 PM 86.0 °F 90.1 °F 69.1 °F 57% 29.70 in 10.0 mi SSE 12.7 mph - N/A   Clear
5:53 PM 86.0 °F 90.1 °F 69.1 °F 57% 29.69 in 10.0 mi SSE 15.0 mph 19.6 mph N/A   Clear
6:53 PM 86.0 °F 90.7 °F 70.0 °F 59% 29.68 in 10.0 mi SE 10.4 mph - N/A   Clear
7:53 PM 82.9 °F 86.5 °F 69.1 °F 63% 29.68 in 10.0 mi SE 11.5 mph - N/A   Clear
8:53 PM 81.0 °F 83.8 °F 68.0 °F 65% 29.67 in 10.0 mi ESE 10.4 mph - N/A   Mostly Cloudy
9:53 PM 79.0 °F - 68.0 °F 69% 29.66 in 10.0 mi SE 11.5 mph - N/A   Clear
10:53 PM 78.1 °F - 68.0 °F 71% 29.64 in 10.0 mi SSE 13.8 mph - N/A   Clear
11:53 PM 77.0 °F - 66.9 °F 71% 29.63 in 10.0 mi South 9.2 mph - N/A   Clear